K8MUD Weather Reports


Display with metric or nautical units.
time (UTC)temp
F
wind
direction
speed
MPH
gust
MPH
rain 1hr
in
rain 24hr
in
rain mn
in
humidity
%
barometer
mb
20260831145002 76 217 0.0 2.0 0.00 0.10 0.00 83 1016.6
20260831144921 76 217 0.0 2.0 0.00 0.10 0.00 83 1016.6
20260831144523 76 217 0.0 3.0 0.00 0.10 0.00 83 1016.6
20260831144421 76 217 0.0 3.0 0.00 0.11 0.00 82 1016.6
20260831144002 76 217 1.0 4.0 0.00 0.11 0.00 82 1016.6
20260831143921 76 217 1.0 4.0 0.00 0.11 0.00 82 1016.6
20260831143524 76 217 1.0 4.0 0.00 0.11 0.00 82 1016.5
20260831143421 76 217 1.0 4.0 0.00 0.11 0.00 82 1016.6
20260831143002 76 217 1.0 3.0 0.00 0.11 0.00 82 1016.4
20260831142921 76 217 1.0 3.0 0.00 0.11 0.00 82 1016.4
20260831142502 76 227 1.0 4.0 0.00 0.12 0.00 83 1016.4
20260831142420 76 233 1.0 4.0 0.00 0.12 0.00 83 1016.4
20260831142023 76 245 1.0 4.0 0.00 0.12 0.00 83 1016.3
20260831141920 76 248 1.0 4.0 0.00 0.12 0.00 83 1016.3
20260831141502 75 266 1.0 3.0 0.00 0.12 0.00 83 1016.2
20260831141420 75 269 1.0 3.0 0.00 0.12 0.00 84 1016.3
20260831141023 75 269 0.0 3.0 0.00 0.13 0.00 85 1016.2
20260831140920 75 269 1.0 3.0 0.00 0.13 0.00 85 1016.3
20260831140502 74 269 0.0 3.0 0.00 0.14 0.00 85 1016.3
20260831140420 74 269 0.0 3.0 0.00 0.14 0.00 85 1016.3
20260831140002 74 269 0.0 3.0 0.00 0.14 0.00 86 1016.3
20260831135920 74 269 0.0 3.0 0.00 0.14 0.00 86 1016.2
20260831135502 74 0 0.0 0.0 0.00 0.15 0.00 87 1016.2
20260831135420 74 0 0.0 0.0 0.00 0.15 0.00 87 1016.2
20260831135002 74 0 0.0 0.0 0.00 0.16 0.00 87 1016.2
20260831134920 74 0 0.0 0.0 0.00 0.16 0.00 87 1016.2
20260831134503 74 0 0.0 0.0 0.00 0.17 0.00 87 1016.3
20260831134420 74 0 0.0 0.0 0.00 0.17 0.00 87 1016.4
20260831134002 74 0 0.0 0.0 0.00 0.19 0.00 87 1016.3
20260831133920 74 0 0.0 0.0 0.00 0.19 0.00 87 1016.4
20260831133502 74 0 0.0 0.0 0.00 0.20 0.00 87 1016.3
20260831133420 74 0 0.0 0.0 0.00 0.20 0.00 87 1016.3
20260831133024 74 0 0.0 0.0 0.00 0.21 0.00 88 1016.3
20260831132920 74 0 0.0 0.0 0.00 0.22 0.00 88 1016.3
20260831132502 74 0 0.0 0.0 0.00 0.23 0.00 88 1016.2
20260831132420 74 0 0.0 0.0 0.00 0.23 0.00 88 1016.2
20260831132023 73 0 0.0 0.0 0.00 0.24 0.00 89 1016.2
20260831131919 73 0 0.0 0.0 0.00 0.24 0.00 89 1016.1
20260831131505 73 0 0.0 0.0 0.00 0.25 0.00 89 1016.1
20260831131419 73 0 0.0 0.0 0.00 0.25 0.00 89 1016.1
20260831131023 73 0 0.0 0.0 0.00 0.26 0.00 89 1016.1
20260831130919 73 0 0.0 0.0 0.00 0.26 0.00 89 1016.1
20260831130503 73 0 0.0 0.0 0.00 0.26 0.00 89 1016.0
20260831130419 73 0 0.0 0.0 0.00 0.26 0.00 89 1016.0
20260831130005 73 0 0.0 0.0 0.00 0.26 0.00 89 1016.0
20260831125919 73 0 0.0 0.0 0.00 0.26 0.00 89 1016.0
20260831125502 73 0 0.0 0.0 0.00 0.26 0.00 89 1016.0
20260831125419 73 0 0.0 0.0 0.00 0.26 0.00 89 1016.0
20260831125002 72 269 0.0 1.0 0.00 0.26 0.00 89 1016.0
20260831124919 72 269 0.0 1.0 0.00 0.26 0.00 89 1016.0
20260831124502 72 269 0.0 1.0 0.00 0.26 0.00 90 1016.0
20260831124419 72 269 0.0 1.0 0.00 0.26 0.00 90 1016.0
20260831124002 72 0 0.0 0.0 0.00 0.26 0.00 90 1016.0
20260831123919 72 0 0.0 0.0 0.00 0.26 0.00 90 1016.0
20260831123503 72 0 0.0 0.0 0.00 0.26 0.00 90 1016.0
20260831123419 72 0 0.0 0.0 0.00 0.26 0.00 90 1016.0
20260831123023 72 0 0.0 0.0 0.00 0.26 0.00 90 1016.1
20260831122919 72 0 0.0 0.0 0.00 0.26 0.00 90 1016.1
20260831122506 72 0 0.0 0.0 0.00 0.26 0.00 90 1016.0
20260831122418 72 0 0.0 0.0 0.00 0.26 0.00 90 1016.0
20260831122002 72 267 0.0 1.0 0.00 0.26 0.00 90 1016.1
20260831121918 72 267 0.0 1.0 0.00 0.26 0.00 90 1016.0
20260831121523 72 267 0.0 1.0 0.00 0.26 0.00 90 1016.1
20260831121418 72 267 0.0 1.0 0.00 0.26 0.00 90 1016.1
20260831121003 71 0 0.0 0.0 0.00 0.26 0.00 90 1016.1
20260831120918 71 0 0.0 0.0 0.00 0.26 0.00 90 1016.0
20260831120523 71 0 0.0 0.0 0.00 0.26 0.00 90 1016.1
20260831120418 71 0 0.0 0.0 0.00 0.26 0.00 90 1016.2
20260831120003 71 0 0.0 0.0 0.00 0.26 0.00 90 1016.2
20260831115918 71 0 0.0 0.0 0.00 0.26 0.00 90 1016.2
20260831115502 71 0 0.0 0.0 0.00 0.26 0.00 90 1016.1
20260831115418 71 0 0.0 0.0 0.00 0.26 0.00 90 1016.1
20260831115023 71 0 0.0 0.0 0.00 0.26 0.00 90 1016.2
20260831114918 71 0 0.0 0.0 0.00 0.26 0.00 90 1016.3
20260831114503 71 0 0.0 0.0 0.00 0.26 0.00 90 1016.2
20260831114418 71 0 0.0 0.0 0.00 0.26 0.00 90 1016.2
20260831114023 71 0 0.0 0.0 0.00 0.26 0.00 90 1016.2
20260831113918 71 0 0.0 0.0 0.00 0.26 0.00 90 1016.2
20260831113502 71 0 0.0 0.0 0.00 0.26 0.00 90 1016.3
20260831113418 71 0 0.0 0.0 0.00 0.26 0.00 90 1016.3
20260831113006 71 0 0.0 0.0 0.00 0.26 0.00 90 1016.2
20260831112918 71 0 0.0 0.0 0.00 0.26 0.00 90 1016.3
20260831112502 71 0 0.0 0.0 0.00 0.26 0.00 90 1016.2
20260831112418 71 0 0.0 0.0 0.00 0.26 0.00 90 1016.1
20260831112002 71 0 0.0 0.0 0.00 0.26 0.00 90 1016.2
20260831111917 71 0 0.0 0.0 0.00 0.26 0.00 90 1016.2
20260831111506 71 0 0.0 0.0 0.00 0.26 0.00 90 1016.1
20260831111417 71 0 0.0 0.0 0.00 0.26 0.00 90 1016.1
20260831111003 71 0 0.0 0.0 0.00 0.26 0.00 90 1016.1
20260831110917 71 0 0.0 0.0 0.00 0.26 0.00 90 1016.1
20260831110502 71 0 0.0 0.0 0.00 0.26 0.00 90 1016.1
20260831110417 71 0 0.0 0.0 0.00 0.26 0.00 90 1016.1
20260831110005 71 0 0.0 0.0 0.00 0.26 0.00 90 1016.1
20260831105917 71 0 0.0 0.0 0.00 0.26 0.00 90 1016.2
20260831105502 71 0 0.0 0.0 0.00 0.26 0.00 90 1016.2
20260831105417 71 0 0.0 0.0 0.00 0.26 0.00 90 1016.2
20260831105024 71 0 0.0 0.0 0.00 0.26 0.00 90 1016.2
20260831104917 71 0 0.0 0.0 0.00 0.26 0.00 90 1016.1
20260831104524 71 0 0.0 0.0 0.00 0.26 0.00 90 1016.1
20260831104417 71 0 0.0 0.0 0.00 0.26 0.00 90 1016.1
20260831104002 71 0 0.0 0.0 0.00 0.27 0.00 90 1016.0
20260831103917 71 0 0.0 0.0 0.00 0.27 0.00 90 1016.0
20260831103502 71 0 0.0 0.0 0.00 0.27 0.00 90 1016.0
20260831103417 71 0 0.0 0.0 0.00 0.27 0.00 90 1016.0
20260831103003 71 0 0.0 0.0 0.00 0.27 0.00 90 1016.0
20260831102917 71 0 0.0 0.0 0.00 0.27 0.00 90 1016.0
20260831102503 71 0 0.0 0.0 0.00 0.27 0.00 90 1016.0
20260831102417 71 0 0.0 0.0 0.00 0.27 0.00 90 1016.0
20260831102002 71 0 0.0 0.0 0.00 0.27 0.00 90 1016.0
20260831101917 71 0 0.0 0.0 0.00 0.27 0.00 90 1016.0
20260831101502 71 0 0.0 0.0 0.00 0.27 0.00 90 1016.0
20260831101417 71 0 0.0 0.0 0.00 0.27 0.00 90 1016.0
20260831101003 71 0 0.0 0.0 0.00 0.27 0.00 90 1016.1
20260831100916 71 0 0.0 0.0 0.00 0.27 0.00 90 1016.1
20260831100505 71 0 0.0 0.0 0.00 0.27 0.00 90 1016.0
20260831100416 71 0 0.0 0.0 0.00 0.27 0.00 90 1016.0
20260831100002 71 0 0.0 0.0 0.00 0.27 0.00 90 1016.0
20260831095916 71 0 0.0 0.0 0.00 0.28 0.00 90 1016.0
20260831095524 71 0 0.0 0.0 0.00 0.28 0.00 90 1015.9
20260831095416 71 0 0.0 0.0 0.00 0.28 0.00 90 1016.0
20260831095006 71 0 0.0 0.0 0.00 0.28 0.00 89 1015.8
20260831094916 71 0 0.0 0.0 0.00 0.28 0.00 89 1015.8
20260831094503 71 0 0.0 0.0 0.00 0.28 0.00 89 1015.9
20260831094416 71 0 0.0 0.0 0.00 0.28 0.00 89 1015.9
20260831094006 71 0 0.0 0.0 0.00 0.28 0.00 89 1016.0
20260831093916 71 0 0.0 0.0 0.00 0.28 0.00 89 1016.0
20260831093523 71 0 0.0 0.0 0.00 0.28 0.00 89 1016.1
20260831093416 71 0 0.0 0.0 0.00 0.28 0.00 89 1016.0
20260831093003 71 0 0.0 0.0 0.00 0.28 0.00 89 1016.1
20260831092916 71 0 0.0 0.0 0.00 0.28 0.00 89 1016.1
20260831092524 71 0 0.0 0.0 0.00 0.28 0.00 89 1016.0
20260831092416 71 0 0.0 0.0 0.00 0.28 0.00 89 1016.0
20260831092002 71 0 0.0 0.0 0.00 0.28 0.00 89 1016.1
20260831091916 71 0 0.0 0.0 0.00 0.28 0.00 89 1016.2
20260831091502 71 0 0.0 0.0 0.00 0.28 0.00 89 1016.2
20260831091416 71 0 0.0 0.0 0.00 0.28 0.00 89 1016.2
20260831091003 71 0 0.0 0.0 0.00 0.28 0.00 89 1016.0
20260831090916 71 0 0.0 0.0 0.00 0.28 0.00 89 1016.0
20260831090503 71 0 0.0 0.0 0.00 0.28 0.00 89 1016.0
20260831090415 71 0 0.0 0.0 0.00 0.28 0.00 89 1016.0
20260831090002 71 0 0.0 0.0 0.00 0.28 0.00 88 1015.9
20260831085915 71 0 0.0 0.0 0.00 0.28 0.00 88 1015.9
20260831085523 71 0 0.0 0.0 0.00 0.28 0.00 88 1015.7
20260831085415 71 0 0.0 0.0 0.00 0.28 0.00 88 1015.7
20260831085002 71 0 0.0 0.0 0.00 0.28 0.00 88 1015.7
20260831084915 71 0 0.0 0.0 0.00 0.28 0.00 88 1015.7
20260831084503 71 0 0.0 0.0 0.00 0.28 0.00 88 1015.7
20260831084415 71 0 0.0 0.0 0.00 0.28 0.00 88 1015.6
20260831084003 71 0 0.0 0.0 0.00 0.28 0.00 88 1015.6
20260831083915 71 0 0.0 0.0 0.00 0.28 0.00 88 1015.6
20260831083506 71 0 0.0 0.0 0.00 0.28 0.00 88 1015.5
20260831083415 71 0 0.0 0.0 0.00 0.28 0.00 88 1015.6
20260831083002 71 0 0.0 0.0 0.00 0.28 0.00 88 1015.6
20260831082915 71 0 0.0 0.0 0.00 0.28 0.00 88 1015.5
20260831082523 71 0 0.0 0.0 0.00 0.28 0.00 88 1015.6
20260831082415 71 0 0.0 0.0 0.00 0.28 0.00 88 1015.6
20260831082003 71 0 0.0 0.0 0.00 0.28 0.00 88 1015.6
20260831081915 71 0 0.0 0.0 0.00 0.28 0.00 88 1015.6
20260831081503 71 0 0.0 0.0 0.00 0.28 0.00 88 1015.6
20260831081415 72 0 0.0 0.0 0.00 0.28 0.00 88 1015.6
20260831081027 71 0 0.0 0.0 0.00 0.28 0.00 88 1015.6
20260831080915 71 0 0.0 0.0 0.00 0.28 0.00 88 1015.6
20260831080524 71 0 0.0 0.0 0.00 0.28 0.00 88 1015.7
20260831080415 71 0 0.0 0.0 0.00 0.28 0.00 88 1015.7
20260831080003 71 0 0.0 0.0 0.00 0.28 0.00 88 1015.6
20260831075915 71 0 0.0 0.0 0.00 0.28 0.00 88 1015.6
20260831075503 71 0 0.0 0.0 0.00 0.28 0.00 88 1015.8
20260831075415 71 0 0.0 0.0 0.00 0.28 0.00 88 1015.8
20260831075003 71 0 0.0 0.0 0.00 0.28 0.00 88 1015.8
20260831074914 71 0 0.0 0.0 0.00 0.28 0.00 88 1015.8
20260831074505 71 0 0.0 0.0 0.00 0.28 0.00 88 1015.8
20260831074414 71 0 0.0 0.0 0.00 0.28 0.00 88 1015.8
20260831074003 71 0 0.0 0.0 0.00 0.28 0.00 88 1015.8
20260831073914 71 0 0.0 0.0 0.00 0.28 0.00 88 1015.8
20260831073503 71 0 0.0 0.0 0.00 0.28 0.00 88 1016.0
20260831073414 71 0 0.0 0.0 0.00 0.28 0.00 88 1015.9
20260831073003 71 0 0.0 0.0 0.00 0.28 0.00 88 1016.0
20260831072914 71 0 0.0 0.0 0.00 0.28 0.00 88 1016.0
20260831072503 71 0 0.0 0.0 0.00 0.28 0.00 88 1016.0
20260831072414 71 0 0.0 0.0 0.00 0.28 0.00 88 1015.9
20260831072002 71 0 0.0 0.0 0.00 0.28 0.00 88 1015.9
20260831071914 71 0 0.0 0.0 0.00 0.28 0.00 88 1015.9
20260831071503 71 0 0.0 0.0 0.00 0.28 0.00 88 1016.0
20260831071414 71 0 0.0 0.0 0.00 0.28 0.00 88 1016.1
20260831071003 71 0 0.0 0.0 0.00 0.28 0.00 88 1016.2
20260831070914 71 0 0.0 0.0 0.00 0.28 0.00 88 1016.2
20260831070503 72 0 0.0 0.0 0.00 0.28 0.00 88 1016.2
20260831070414 71 0 0.0 0.0 0.00 0.28 0.00 88 1016.3
20260831070027 72 0 0.0 0.0 0.00 0.28 0.00 88 1016.2
20260831065914 72 0 0.0 0.0 0.00 0.28 0.00 88 1016.2
20260831065523 72 0 0.0 0.0 0.00 0.28 0.00 87 1016.3
20260831065414 72 0 0.0 0.0 0.00 0.28 0.00 87 1016.3
20260831065003 72 0 0.0 0.0 0.00 0.28 0.00 87 1016.3
20260831064914 72 0 0.0 0.0 0.00 0.28 0.00 87 1016.3
20260831064503 72 0 0.0 0.0 0.00 0.28 0.00 87 1016.3
20260831064414 72 0 0.0 0.0 0.00 0.28 0.00 87 1016.4
20260831064003 72 0 0.0 0.0 0.00 0.28 0.00 87 1016.3
20260831063913 72 0 0.0 0.0 0.00 0.28 0.00 87 1016.3
20260831063523 72 0 0.0 0.0 0.00 0.28 0.00 87 1016.3
20260831063413 72 0 0.0 0.0 0.00 0.28 0.00 87 1016.3
20260831063003 72 0 0.0 0.0 0.00 0.28 0.00 87 1016.3
20260831062913 72 0 0.0 0.0 0.00 0.28 0.00 87 1016.3
20260831062503 72 0 0.0 0.0 0.00 0.28 0.00 86 1016.3
20260831062413 72 0 0.0 0.0 0.00 0.28 0.00 86 1016.3
20260831062006 72 0 0.0 0.0 0.00 0.28 0.00 86 1016.5
20260831061913 72 0 0.0 0.0 0.00 0.28 0.00 86 1016.5
20260831061502 72 0 0.0 0.0 0.00 0.28 0.00 86 1016.3
20260831061413 72 0 0.0 0.0 0.00 0.28 0.00 86 1016.3
20260831061003 72 0 0.0 0.0 0.00 0.28 0.00 86 1016.2
20260831060913 72 0 0.0 0.0 0.00 0.28 0.00 86 1016.3
20260831060503 72 0 0.0 0.0 0.00 0.28 0.00 86 1016.3
20260831060413 72 0 0.0 0.0 0.00 0.28 0.00 86 1016.3
20260831060024 72 0 0.0 0.0 0.00 0.28 0.00 86 1016.4
20260831055913 72 0 0.0 0.0 0.00 0.28 0.00 86 1016.4
20260831055503 72 0 0.0 0.0 0.00 0.28 0.00 86 1016.4
20260831055413 72 0 0.0 0.0 0.00 0.28 0.00 86 1016.4
20260831055003 72 0 0.0 0.0 0.00 0.28 0.00 86 1016.5
20260831054913 72 0 0.0 0.0 0.00 0.28 0.00 86 1016.6
20260831054503 72 0 0.0 0.0 0.00 0.28 0.00 86 1016.6
20260831054413 72 0 0.0 0.0 0.00 0.28 0.00 86 1016.6
20260831054003 72 0 0.0 0.0 0.00 0.28 0.00 86 1016.6
20260831053913 72 0 0.0 0.0 0.00 0.28 0.00 86 1016.6
20260831053503 72 265 0.0 1.0 0.00 0.28 0.00 86 1016.6
20260831053413 72 262 0.0 4.0 0.00 0.28 0.00 86 1016.5
20260831053006 72 211 0.0 4.0 0.00 0.28 0.00 86 1016.5
20260831052912 72 204 1.0 4.0 0.00 0.28 0.00 86 1016.5
20260831052524 72 199 1.0 4.0 0.00 0.28 0.00 86 1016.5
20260831052412 72 169 0.0 2.0 0.00 0.28 0.00 86 1016.5
20260831052003 72 169 0.0 2.0 0.00 0.28 0.00 86 1016.5
20260831051912 72 169 0.0 2.0 0.00 0.28 0.00 86 1016.5
20260831051503 72 169 0.0 2.0 0.00 0.28 0.00 86 1016.5
20260831051412 72 169 0.0 2.0 0.00 0.28 0.00 86 1016.5
20260831051003 72 169 0.0 1.0 0.00 0.28 0.00 86 1016.6
20260831050912 72 169 0.0 1.0 0.00 0.28 0.00 86 1016.6
20260831050524 72 169 0.0 1.0 0.00 0.28 0.00 86 1016.7
20260831050412 72 169 0.0 1.0 0.00 0.28 0.00 86 1016.7
20260831050003 72 169 0.0 2.0 0.00 0.28 0.00 86 1016.7
20260831045912 72 169 0.0 2.0 0.00 0.28 0.00 86 1016.7
20260831045503 72 169 0.0 2.0 0.00 0.28 0.00 86 1016.7
20260831045412 72 169 0.0 2.0 0.00 0.28 0.00 86 1016.7
20260831045003 72 169 0.0 2.0 0.00 0.28 0.00 86 1016.7
20260831044912 72 0 0.0 0.0 0.00 0.28 0.00 86 1016.7
20260831044504 73 169 0.0 1.0 0.00 0.28 0.00 86 1016.7
20260831044412 73 169 0.0 1.0 0.00 0.28 0.00 86 1016.7
20260831044003 73 169 0.0 1.0 0.00 0.28 0.00 86 1016.7
20260831043912 73 169 0.0 2.0 0.00 0.28 0.00 86 1016.7
20260831043506 73 169 0.0 2.0 0.00 0.28 0.00 85 1016.7
20260831043412 73 169 0.0 2.0 0.00 0.28 0.00 85 1016.7
20260831043003 73 169 0.0 2.0 0.00 0.28 0.00 85 1016.7
20260831042911 73 169 0.0 2.0 0.00 0.28 0.00 85 1016.7
20260831042503 73 169 0.0 4.0 0.00 0.28 0.00 85 1016.7
20260831042411 73 169 0.0 4.0 0.00 0.28 0.00 85 1016.7
20260831042003 73 169 0.0 4.0 0.00 0.28 0.00 85 1016.7
20260831041911 73 169 0.0 4.0 0.00 0.28 0.00 85 1016.6
20260831041527 73 169 0.0 4.0 0.00 0.28 0.00 85 1016.6
20260831041411 73 169 0.0 4.0 0.00 0.28 0.00 85 1016.6
20260831041003 73 169 1.0 4.0 0.00 0.28 0.00 85 1016.6
20260831040911 73 169 0.0 4.0 0.00 0.28 0.00 85 1016.6
20260831040503 73 169 1.0 4.0 0.00 0.28 0.00 85 1016.7
20260831040411 73 169 1.0 4.0 0.00 0.28 0.00 85 1016.6
20260831040003 73 169 1.0 5.0 0.00 0.28 0.00 85 1016.7
20260831035911 73 169 1.0 5.0 0.00 0.28 0.28 85 1016.6
20260831035503 73 169 1.0 5.0 0.00 0.28 0.28 85 1016.6
20260831035411 73 169 1.0 5.0 0.00 0.28 0.28 85 1016.6
20260831035003 73 169 1.0 5.0 0.00 0.28 0.28 85 1016.6
20260831034911 73 169 1.0 4.0 0.00 0.28 0.28 85 1016.7
20260831034503 73 169 1.0 4.0 0.00 0.28 0.28 85 1016.6
20260831034411 73 169 0.0 4.0 0.00 0.28 0.28 85 1016.5
20260831034003 72 169 0.0 4.0 0.00 0.28 0.28 85 1016.6
20260831033911 72 169 0.0 4.0 0.00 0.28 0.28 85 1016.7
20260831033527 72 169 1.0 4.0 0.00 0.28 0.28 86 1016.7
20260831033411 73 169 1.0 4.0 0.00 0.28 0.28 86 1016.7
20260831033004 72 169 0.0 4.0 0.00 0.28 0.28 86 1016.6
20260831032911 72 169 1.0 4.0 0.00 0.28 0.28 86 1016.7
20260831032503 72 169 0.0 4.0 0.00 0.28 0.28 86 1016.7
20260831032411 72 169 1.0 4.0 0.00 0.28 0.28 86 1016.7
20260831032003 72 169 0.0 4.0 0.00 0.28 0.28 86 1016.6
20260831031910 72 169 0.0 4.0 0.00 0.28 0.28 86 1016.6
20260831031503 72 169 1.0 4.0 0.00 0.28 0.28 86 1016.6
20260831031410 72 169 1.0 4.0 0.00 0.28 0.28 86 1016.6
20260831031003 72 163 1.0 6.0 0.00 0.28 0.28 86 1016.6
20260831030910 72 163 1.0 6.0 0.00 0.28 0.28 86 1016.6
20260831030503 72 167 1.0 6.0 0.00 0.28 0.28 86 1016.6
20260831030410 72 170 1.0 6.0 0.00 0.28 0.28 86 1016.6
20260831030006 72 182 1.0 3.0 0.00 0.28 0.28 86 1016.5
20260831025910 72 185 1.0 3.0 0.00 0.28 0.28 86 1016.6
20260831025503 72 195 0.0 3.0 0.00 0.28 0.28 86 1016.6
20260831025410 72 195 0.0 3.0 0.00 0.28 0.28 86 1016.6
20260831025025 72 190 0.0 5.0 0.00 0.28 0.28 86 1016.6
20260831024910 72 182 0.0 5.0 0.00 0.28 0.28 86 1016.6
20260831024506 72 172 1.0 5.0 0.00 0.28 0.28 86 1016.6
20260831024410 72 166 0.0 5.0 0.00 0.28 0.28 86 1016.5
20260831024003 72 146 1.0 3.0 0.00 0.28 0.28 86 1016.6
20260831023910 72 146 1.0 3.0 0.00 0.28 0.28 86 1016.7
20260831023504 72 146 1.0 3.0 0.00 0.28 0.28 86 1016.6
20260831023410 72 146 1.0 3.0 0.00 0.28 0.28 86 1016.6
20260831023003 72 145 1.0 3.0 0.00 0.28 0.28 86 1016.6
20260831022910 72 144 1.0 4.0 0.00 0.28 0.28 86 1016.7
20260831022503 72 140 1.0 4.0 0.00 0.28 0.28 86 1016.6
20260831022410 72 139 1.0 4.0 0.00 0.28 0.28 86 1016.6
20260831022003 72 133 1.0 4.0 0.00 0.28 0.28 86 1016.7
20260831021910 72 132 1.0 3.0 0.00 0.28 0.28 86 1016.6
20260831021503 72 132 1.0 3.0 0.00 0.28 0.28 86 1016.6
20260831021410 72 132 1.0 3.0 0.00 0.28 0.28 86 1016.6
20260831021003 72 132 1.0 4.0 0.00 0.28 0.28 86 1016.6
20260831020909 72 132 1.0 4.0 0.00 0.28 0.28 86 1016.6
20260831020503 72 132 1.0 4.0 0.00 0.28 0.28 86 1016.7
20260831020409 72 135 1.0 4.0 0.00 0.28 0.28 86 1016.7
20260831020003 72 147 1.0 4.0 0.00 0.28 0.28 86 1016.7
20260831015909 72 148 0.0 4.0 0.00 0.28 0.28 86 1016.7
20260831015503 73 161 0.0 4.0 0.00 0.28 0.28 87 1016.7
20260831015409 73 162 0.0 4.0 0.00 0.28 0.28 87 1016.7
20260831015004 73 165 1.0 5.0 0.00 0.28 0.28 87 1016.7
20260831014909 73 165 1.0 5.0 0.00 0.28 0.28 87 1016.7
20260831014507 73 162 2.0 5.0 0.00 0.28 0.28 87 1016.6
20260831014409 73 162 2.0 5.0 0.00 0.28 0.28 87 1016.6
20260831014024 73 154 2.0 5.0 0.00 0.28 0.28 87 1016.5
20260831013909 73 152 2.0 5.0 0.00 0.28 0.28 87 1016.5
20260831013524 73 147 2.0 5.0 0.00 0.28 0.28 87 1016.5
20260831013409 73 148 2.0 8.0 0.00 0.28 0.28 87 1016.6
20260831013028 73 152 2.0 8.0 0.00 0.28 0.28 87 1016.5
20260831012909 73 158 2.0 8.0 0.00 0.28 0.28 87 1016.4
20260831012503 73 170 2.0 8.0 0.00 0.28 0.28 87 1016.5
20260831012409 73 171 2.0 5.0 0.00 0.28 0.28 87 1016.5
20260831012003 73 175 2.0 6.0 0.00 0.28 0.28 87 1016.6
20260831011909 73 173 2.0 6.0 0.00 0.28 0.28 87 1016.6
20260831011504 73 169 2.0 6.0 0.00 0.28 0.28 87 1016.6
20260831011409 73 167 2.0 6.0 0.00 0.28 0.28 87 1016.6
20260831011004 73 163 2.0 8.0 0.00 0.28 0.28 87 1016.7
20260831010908 73 164 2.0 8.0 0.00 0.28 0.28 87 1016.7
20260831010504 73 158 2.0 8.0 0.00 0.28 0.28 87 1016.6
20260831010408 73 160 3.0 8.0 0.00 0.28 0.28 87 1016.6
20260831010003 73 160 3.0 7.0 0.00 0.28 0.28 87 1016.7
20260831005908 73 161 3.0 7.0 0.00 0.28 0.28 87 1016.6
20260831005503 73 162 3.0 9.0 0.00 0.28 0.28 87 1016.5
20260831005408 73 160 3.0 9.0 0.00 0.28 0.28 87 1016.5
20260831005024 73 160 3.0 10.0 0.00 0.28 0.28 87 1016.4
20260831004908 73 160 3.0 10.0 0.00 0.28 0.28 87 1016.4
20260831004501 73 161 3.0 10.0 0.00 0.28 0.28 87 1016.1
20260831004338 73 161 3.0 10.0 0.00 0.28 0.28 87 1016.1
20260831004001 73 158 3.0 6.0 0.00 0.28 0.28 88 1016.1
20260831003838 73 154 2.0 6.0 0.00 0.28 0.28 88 1016.1
20260831003505 73 153 2.0 6.0 0.00 0.28 0.28 88 1016.0
20260831003338 73 155 3.0 6.0 0.00 0.28 0.28 87 1016.1
20260831003001 73 158 3.0 6.0 0.00 0.28 0.28 87 1016.0
20260831002838 73 161 3.0 7.0 0.00 0.28 0.28 87 1016.1
20260831002501 73 160 3.0 9.0 0.00 0.28 0.28 87 1016.0
20260831002338 73 154 3.0 9.0 0.00 0.28 0.28 87 1016.0
20260831002005 73 149 3.0 9.0 0.00 0.28 0.28 87 1016.1
20260831001838 73 146 3.0 9.0 0.00 0.28 0.28 87 1016.2
20260831001502 73 145 3.0 8.0 0.00 0.28 0.28 87 1016.1
20260831001338 73 145 3.0 7.0 0.00 0.28 0.28 87 1016.1
20260831001001 73 145 3.0 7.0 0.00 0.28 0.28 87 1016.1
20260831000838 73 143 3.0 9.0 0.00 0.28 0.28 87 1016.1
20260831000502 73 141 3.0 9.0 0.00 0.28 0.28 87 1016.2
20260831000340 73 142 4.0 9.0 0.00 0.28 0.28 87 1016.1
20260830235837 73 141 4.0 9.0 0.00 0.28 0.28 87 1016.3
20260830235501 73 140 3.0 8.0 0.00 0.28 0.28 87 1016.3
20260830235337 73 140 3.0 8.0 0.00 0.28 0.28 87 1016.4
20260830235001 73 139 3.0 8.0 0.00 0.28 0.28 87 1016.4
20260830234837 73 138 3.0 8.0 0.00 0.28 0.28 87 1016.5
20260830234501 73 136 3.0 8.0 0.00 0.28 0.28 87 1016.5
20260830234337 73 135 2.0 8.0 0.00 0.28 0.28 87 1016.6
20260830234001 73 137 2.0 4.0 0.00 0.28 0.28 87 1016.7
20260830233837 73 141 2.0 4.0 0.00 0.28 0.28 86 1016.7
20260830233501 73 147 2.0 4.0 0.00 0.28 0.28 86 1016.8
20260830233337 73 152 2.0 5.0 0.00 0.28 0.28 86 1016.9
20260830233002 73 158 2.0 5.0 0.00 0.28 0.28 86 1017.0
20260830232837 73 156 2.0 5.0 0.00 0.28 0.28 86 1017.1
20260830232501 73 158 1.0 5.0 0.00 0.28 0.28 87 1017.2
20260830232337 73 156 1.0 4.0 0.00 0.28 0.28 86 1017.3
20260830232001 73 151 1.0 5.0 0.00 0.28 0.28 86 1017.4
20260830231837 73 158 1.0 5.0 0.00 0.28 0.28 86 1017.4
20260830231501 73 156 1.0 5.0 0.00 0.28 0.28 85 1017.4
20260830231337 73 154 1.0 5.0 0.00 0.28 0.28 85 1017.5
20260830231002 73 152 1.0 3.0 0.00 0.28 0.28 85 1017.5
20260830230837 73 149 0.0 3.0 0.00 0.28 0.28 86 1017.4
20260830230523 73 137 0.0 2.0 0.00 0.28 0.28 87 1017.5
20260830230336 73 0 0.0 0.0 0.00 0.28 0.28 87 1017.4
20260830230001 73 0 0.0 0.0 0.00 0.28 0.28 87 1017.5
20260830225836 73 0 0.0 0.0 0.00 0.28 0.28 87 1017.4
20260830225502 72 0 0.0 0.0 0.00 0.28 0.28 87 1017.4
20260830225336 72 0 0.0 0.0 0.00 0.28 0.28 87 1017.3
20260830225002 72 0 0.0 0.0 0.00 0.28 0.28 87 1017.5
20260830224836 72 0 0.0 0.0 0.00 0.28 0.28 87 1017.5
20260830224501 72 0 0.0 0.0 0.00 0.28 0.28 87 1017.5
20260830224336 72 0 0.0 0.0 0.00 0.28 0.28 87 1017.4
20260830223836 72 160 0.0 1.0 0.00 0.28 0.28 87 1017.4
20260830223501 72 160 0.0 1.0 0.00 0.28 0.28 88 1017.4
20260830223336 72 161 0.0 4.0 0.00 0.28 0.28 88 1017.4
20260830223001 73 163 0.0 4.0 0.00 0.28 0.28 88 1017.2
20260830222836 73 166 1.0 4.0 0.00 0.28 0.28 89 1017.2
20260830222502 73 168 1.0 4.0 0.00 0.28 0.28 89 1017.1
20260830222336 73 171 1.0 5.0 0.00 0.28 0.28 90 1017.0
20260830222002 73 169 1.0 5.0 0.00 0.28 0.28 89 1017.0
20260830221836 73 176 1.0 5.0 0.00 0.28 0.28 89 1017.1
20260830221522 73 174 1.0 5.0 0.00 0.28 0.28 89 1017.0
20260830221336 73 169 1.0 5.0 0.00 0.28 0.28 89 1017.0
20260830221002 73 167 1.0 5.0 0.00 0.28 0.28 89 1017.0
20260830220836 73 159 1.0 5.0 0.00 0.28 0.28 89 1017.2
20260830220502 73 156 1.0 5.0 0.00 0.28 0.28 88 1017.1
20260830220336 73 162 1.0 5.0 0.00 0.28 0.28 88 1017.2
20260830220022 73 168 1.0 5.0 0.00 0.28 0.28 88 1017.2
20260830215835 73 175 1.0 4.0 0.00 0.28 0.28 88 1017.2
20260830215522 73 171 1.0 5.0 0.00 0.28 0.28 88 1017.3
20260830215335 73 162 1.0 5.0 0.00 0.28 0.28 88 1017.3
20260830215002 73 153 1.0 5.0 0.00 0.28 0.28 88 1017.3
20260830214835 73 145 1.0 5.0 0.00 0.28 0.28 88 1017.3
20260830214501 73 146 1.0 4.0 0.00 0.28 0.28 87 1017.3
20260830214335 73 150 1.0 5.0 0.00 0.28 0.28 87 1017.2
20260830214004 73 155 2.0 5.0 0.00 0.28 0.28 88 1017.2
20260830213835 73 158 2.0 5.0 0.00 0.28 0.28 87 1017.1
20260830213501 73 157 2.0 5.0 0.00 0.28 0.28 87 1017.2
20260830213335 73 160 2.0 5.0 0.00 0.28 0.28 87 1017.3
20260830213023 73 159 2.0 6.0 0.00 0.28 0.28 87 1017.2
20260830212835 73 156 2.0 6.0 0.00 0.28 0.28 86 1017.2
20260830212502 73 151 2.0 6.0 0.00 0.28 0.28 86 1017.0
20260830212335 73 145 2.0 6.0 0.00 0.28 0.28 87 1016.9
20260830212001 73 140 2.0 4.0 0.00 0.28 0.28 87 1017.0
20260830211835 73 141 2.0 5.0 0.00 0.28 0.28 86 1016.9
20260830211502 73 146 2.0 6.0 0.00 0.28 0.28 86 1016.9
20260830211335 73 145 2.0 6.0 0.00 0.28 0.28 86 1016.9
20260830211023 73 148 2.0 6.0 0.00 0.28 0.28 86 1016.9
20260830210835 73 146 2.0 6.0 0.00 0.28 0.28 86 1016.9
20260830210525 73 140 2.0 6.0 0.00 0.28 0.28 87 1016.8
20260830210335 73 140 2.0 6.0 0.00 0.28 0.28 87 1016.8
20260830210002 73 138 2.0 4.0 0.00 0.28 0.28 87 1016.7
20260830205835 73 139 2.0 5.0 0.00 0.28 0.28 87 1016.7
20260830205502 73 141 2.0 5.0 0.00 0.28 0.28 87 1016.8
20260830205335 73 142 2.0 5.0 0.00 0.28 0.28 88 1016.9
20260830205001 73 141 2.0 5.0 0.00 0.28 0.28 88 1016.9
20260830204835 73 141 2.0 7.0 0.00 0.28 0.28 88 1016.9
20260830204502 73 140 2.0 7.0 0.00 0.28 0.28 88 1016.9
20260830204334 73 139 2.0 7.0 0.00 0.28 0.28 88 1016.9
20260830204002 73 138 2.0 7.0 0.00 0.28 0.28 89 1016.9
20260830203835 73 137 2.0 5.0 0.00 0.28 0.28 89 1016.8
20260830203501 73 134 2.0 5.0 0.00 0.28 0.28 88 1016.9
20260830203334 73 131 2.0 5.0 0.00 0.28 0.28 88 1016.9
20260830203002 73 133 2.0 4.0 0.00 0.28 0.28 89 1017.0
20260830202834 73 134 2.0 5.0 0.00 0.28 0.28 89 1016.9
20260830202501 72 135 2.0 5.0 0.00 0.28 0.28 88 1016.9
20260830202334 72 137 2.0 7.0 0.00 0.28 0.28 88 1016.8
20260830202005 72 136 2.0 7.0 0.00 0.28 0.28 88 1016.7
20260830201834 72 137 2.0 7.0 0.00 0.28 0.28 88 1016.9
20260830201523 72 139 2.0 7.0 0.00 0.28 0.28 88 1016.8
20260830201334 72 141 2.0 5.0 0.00 0.28 0.28 88 1016.8
20260830201001 72 147 2.0 5.0 0.00 0.28 0.28 88 1016.8
20260830200834 72 147 2.0 5.0 0.00 0.28 0.28 88 1016.9
20260830200501 72 142 2.0 7.0 0.00 0.28 0.28 88 1016.8
20260830200334 72 141 2.0 7.0 0.00 0.28 0.28 88 1016.9
20260830200002 72 142 2.0 7.0 0.00 0.28 0.28 88 1016.9
20260830195834 72 145 2.0 7.0 0.00 0.28 0.28 88 1016.9
20260830195502 72 152 2.0 5.0 0.00 0.28 0.28 88 1016.8
20260830195334 72 159 2.0 5.0 0.00 0.28 0.28 88 1016.8
20260830195001 72 163 2.0 6.0 0.00 0.28 0.28 88 1016.9
20260830194834 72 165 2.0 6.0 0.00 0.28 0.28 88 1016.9
20260830194523 72 168 2.0 6.0 0.00 0.28 0.28 88 1017.0
20260830194334 72 168 2.0 6.0 0.00 0.28 0.28 88 1017.1
20260830194002 72 169 2.0 6.0 0.00 0.28 0.28 88 1017.1
20260830193833 72 169 2.0 6.0 0.00 0.28 0.28 89 1017.1
20260830193525 72 168 1.0 5.0 0.00 0.28 0.28 89 1017.0
20260830193333 72 168 1.0 5.0 0.00 0.28 0.28 89 1017.1
20260830193002 72 167 1.0 5.0 0.00 0.28 0.28 89 1017.1
20260830192833 72 169 1.0 4.0 0.00 0.28 0.28 89 1017.2
20260830192505 72 171 1.0 3.0 0.00 0.28 0.28 89 1017.2
20260830192333 72 171 1.0 3.0 0.00 0.28 0.28 89 1017.1
20260830192023 72 173 0.0 3.0 0.00 0.28 0.28 89 1017.1
20260830191833 72 173 0.0 2.0 0.00 0.28 0.28 89 1017.2
20260830191501 72 173 0.0 1.0 0.00 0.28 0.28 89 1017.3
20260830191333 72 0 0.0 0.0 0.00 0.28 0.28 89 1017.5
20260830191002 72 0 0.0 0.0 0.00 0.28 0.28 89 1017.6
20260830190833 72 0 0.0 0.0 0.00 0.28 0.28 89 1017.6
20260830190502 72 0 0.0 0.0 0.00 0.28 0.28 89 1017.7
20260830190333 72 173 0.0 1.0 0.00 0.28 0.28 89 1017.7
20260830190001 72 173 0.0 1.0 0.00 0.28 0.28 89 1017.6
20260830185833 72 173 0.0 2.0 0.00 0.28 0.28 89 1017.6
20260830185502 72 174 0.0 2.0 0.00 0.28 0.28 89 1017.5
20260830185333 72 174 0.0 2.0 0.00 0.28 0.28 89 1017.5
20260830185002 72 174 0.0 2.0 0.00 0.28 0.28 89 1017.4
20260830184833 72 175 0.0 2.0 0.00 0.28 0.28 89 1017.4
20260830184501 72 175 0.0 3.0 0.00 0.28 0.28 89 1017.3
20260830184333 71 177 0.0 3.0 0.00 0.28 0.28 90 1017.4
20260830184002 71 177 0.0 4.0 0.00 0.28 0.28 89 1017.4
20260830183833 71 172 1.0 4.0 0.00 0.28 0.28 89 1017.4
20260830183502 71 171 1.0 4.0 0.00 0.28 0.28 90 1017.3
20260830183333 71 168 1.0 5.0 0.00 0.28 0.28 90 1017.3
20260830183004 71 166 1.0 5.0 0.00 0.28 0.28 90 1017.2
20260830182832 71 165 1.0 5.0 0.00 0.28 0.28 91 1017.2
20260830182523 71 164 1.0 5.0 0.00 0.28 0.28 91 1017.4
20260830182332 71 162 1.0 4.0 0.00 0.28 0.28 92 1017.4
20260830182023 71 161 1.0 4.0 0.00 0.28 0.28 93 1017.3
20260830181832 71 161 1.0 4.0 0.00 0.28 0.28 93 1017.2
20260830181501 71 161 0.0 4.0 0.00 0.28 0.28 93 1017.3
20260830181332 70 161 0.0 2.0 0.00 0.28 0.28 92 1017.5
20260830181001 70 155 0.0 3.0 0.00 0.28 0.28 92 1017.5
20260830180832 70 159 0.0 3.0 0.00 0.28 0.28 92 1017.5
20260830180502 70 174 1.0 3.0 0.00 0.28 0.28 93 1017.5
20260830180332 70 174 1.0 4.0 0.01 0.28 0.28 93 1017.6
20260830180002 70 173 1.0 4.0 0.01 0.28 0.28 93 1017.5
20260830175832 70 174 1.0 4.0 0.01 0.28 0.28 93 1017.6
20260830175501 70 168 1.0 4.0 0.01 0.28 0.28 93 1017.6
20260830175332 70 166 2.0 4.0 0.01 0.28 0.28 93 1017.6
20260830175002 70 167 1.0 5.0 0.02 0.28 0.28 93 1017.5
20260830174832 70 166 1.0 5.0 0.02 0.28 0.28 93 1017.5
20260830174502 70 163 1.0 5.0 0.02 0.28 0.28 93 1017.7
20260830174332 70 159 0.0 5.0 0.02 0.28 0.28 93 1017.6
20260830174002 70 152 0.0 2.0 0.02 0.28 0.28 93 1017.7
20260830173832 70 152 0.0 2.0 0.02 0.28 0.28 93 1017.9
20260830173502 70 152 0.0 2.0 0.03 0.28 0.28 93 1017.9
20260830173332 70 152 0.0 3.0 0.03 0.28 0.28 93 1017.8
20260830173002 70 152 0.0 3.0 0.04 0.28 0.28 93 1017.8
20260830172832 70 152 0.0 3.0 0.04 0.28 0.28 93 1017.8
20260830172523 70 152 0.0 3.0 0.05 0.28 0.28 93 1017.8
20260830172332 69 152 0.0 2.0 0.05 0.28 0.28 93 1018.0
20260830172001 69 152 0.0 2.0 0.06 0.28 0.28 93 1018.1
20260830171831 69 152 1.0 2.0 0.06 0.28 0.28 93 1018.0
20260830171502 69 152 1.0 3.0 0.06 0.28 0.28 93 1018.0
20260830171331 69 152 1.0 3.0 0.06 0.28 0.28 93 1018.1
20260830171002 69 151 1.0 3.0 0.06 0.28 0.28 92 1018.2
20260830170831 69 151 0.0 3.0 0.06 0.28 0.28 92 1018.1
20260830170523 69 151 0.0 3.0 0.06 0.28 0.28 93 1018.1
20260830170331 69 151 1.0 3.0 0.05 0.27 0.27 93 1018.1
20260830170002 69 151 1.0 3.0 0.05 0.27 0.27 93 1018.0
20260830165831 69 151 1.0 3.0 0.05 0.27 0.27 93 1018.1
20260830165502 69 151 1.0 3.0 0.05 0.27 0.27 93 1018.2
20260830165331 69 151 0.0 5.0 0.05 0.27 0.27 93 1018.3
20260830165023 69 151 0.0 5.0 0.04 0.26 0.26 93 1018.4
20260830164831 69 151 0.0 5.0 0.05 0.26 0.26 93 1018.5
20260830164502 69 151 0.0 5.0 0.05 0.26 0.26 93 1018.4
20260830164331 69 153 1.0 5.0 0.06 0.26 0.26 93 1018.6
20260830164002 69 190 1.0 5.0 0.06 0.26 0.26 93 1018.7
20260830163831 69 194 1.0 5.0 0.06 0.26 0.26 92 1018.9
20260830163505 69 201 1.0 5.0 0.05 0.25 0.25 92 1018.9
20260830163331 69 210 1.0 4.0 0.05 0.25 0.25 92 1019.1
20260830163002 69 214 1.0 3.0 0.04 0.24 0.24 93 1019.2
20260830162831 69 216 1.0 3.0 0.04 0.24 0.24 93 1019.2
20260830162502 69 247 0.0 3.0 0.03 0.23 0.23 93 1019.2
20260830162301 69 260 0.0 3.0 0.04 0.23 0.23 93 1019.3
20260830162002 69 262 0.0 3.0 0.03 0.22 0.22 93 1019.3
20260830161801 69 262 0.0 3.0 0.03 0.22 0.22 92 1019.3
20260830161502 69 262 0.0 2.0 0.03 0.22 0.22 93 1019.3
20260830161301 69 262 0.0 2.0 0.03 0.22 0.22 93 1019.3
20260830161023 69 262 0.0 2.0 0.03 0.22 0.22 93 1019.3
20260830160801 69 262 1.0 2.0 0.03 0.22 0.22 92 1019.3
20260830160502 69 262 1.0 2.0 0.03 0.22 0.22 92 1019.3
20260830160300 69 262 1.0 2.0 0.04 0.22 0.22 92 1019.3
20260830160023 69 262 1.0 2.0 0.04 0.22 0.22 92 1019.5
20260830155800 69 263 0.0 2.0 0.04 0.22 0.22 92 1019.5
20260830155503 69 263 0.0 1.0 0.04 0.22 0.22 92 1019.5
20260830155300 69 263 0.0 1.0 0.04 0.22 0.22 92 1019.6
20260830155002 69 263 0.0 4.0 0.04 0.22 0.22 92 1019.7
20260830154800 69 263 1.0 4.0 0.03 0.21 0.21 92 1019.6
20260830154502 69 261 1.0 6.0 0.03 0.21 0.21 92 1019.6
20260830154300 69 260 1.0 6.0 0.03 0.20 0.20 92 1019.7
20260830154003 69 257 1.0 6.0 0.03 0.20 0.20 92 1019.7
20260830153800 69 261 2.0 7.0 0.03 0.20 0.20 92 1019.8
20260830153505 69 270 2.0 7.0 0.03 0.20 0.20 92 1019.8
20260830153300 69 273 2.0 7.0 0.03 0.20 0.20 92 1019.7
20260830153002 69 275 2.0 7.0 0.03 0.20 0.20 92 1019.9
20260830152800 69 272 2.0 6.0 0.03 0.20 0.20 92 1019.8
20260830152502 69 273 2.0 6.0 0.04 0.20 0.20 92 1019.8
20260830152300 69 273 2.0 6.0 0.03 0.19 0.19 92 1019.7
20260830152002 69 265 3.0 9.0 0.03 0.19 0.19 92 1019.8
20260830151800 69 272 3.0 9.0 0.03 0.19 0.19 92 1019.7
20260830151502 69 262 3.0 9.0 0.03 0.19 0.19 92 1019.8
20260830151300 69 262 3.0 9.0 0.03 0.19 0.19 92 1019.7
20260830151002 69 270 2.0 9.0 0.04 0.19 0.19 92 1019.7
20260830150800 70 265 1.0 9.0 0.04 0.19 0.19 93 1019.6
20260830150502 70 270 1.0 6.0 0.05 0.19 0.19 93 1019.6
20260830150300 70 272 1.0 6.0 0.04 0.18 0.18 93 1019.6
20260830150005 70 269 2.0 8.0 0.04 0.18 0.18 92 1019.4
20260830145800 70 261 3.0 8.0 0.04 0.18 0.18 92 1019.4
20260830145502 70 260 3.0 9.0 0.05 0.18 0.18 92 1019.5
20260830145259 70 257 3.0 9.0 0.06 0.18 0.18 92 1019.4